Weather History for Seattle, WA

Change the Weather History Date:

Wednesday, June 11, 2014

  Actual Average Record
Temperature  
Mean Temperature 64 °F 60 °F  
Max Temperature 75 °F 69 °F 84 °F (1989)
Min Temperature 52 °F 51 °F 40 °F (1952)
Degree Days  
Heating Degree Days 1 5  
Month to date heating degree days 30 66  
Since 1 June heating degree days 30 66  
Since 1 July heating degree days 4182 4619  
Cooling Degree Days 0 0  
Month to date cooling degree days 1 0  
Year to date cooling degree days 16 6  
Since 1 June cooling degree days 1 0  
Growing Degree Days 14 (Base 50)    
Moisture  
Dew Point 47 °F    
Average Humidity 59    
Maximum Humidity 89    
Minimum Humidity 29    
Precipitation  
Precipitation 0.00 in 0.06 in 1.16 in (2001)
Month to date precipitation T 0.69  
Year to date precipitation 26.58 18.13  
Sea Level Pressure  
Sea Level Pressure 29.99 in    
Wind  
Wind Speed 6 mph (NNW)    
Max Wind Speed 14 mph    
Max Gust Speed 16 mph    
Visibility 10 miles    
Events      
T = Trace of Precipitation, MM = Missing Value Source: NWS Daily Summary

Daily Weather History Graph

Daily Weather History Graph

Search for Another Location

Airport:

Trip Planner

Search our weather history database for the weather conditions in past years. The results will help you decide how hot, cold, wet, or windy it might be!

Date:

Astronomy

Jun. 11, 2014 Rise Set
Actual Time 5:12 AM PDT 9:06 PM PDT
Civil Twilight 4:31 AM PDT 9:46 PM PDT
Nautical Twilight 3:36 AM PDT 10:41 PM PDT
Astronomical Twilight 2:13 AM PDT 12:06 AM PDT
Moon 7:34 PM PDT (6/11) 4:14 AM PDT (6/11)
Length of Visible Light 17h 14m
Length of Day
15h 53m
Waxing Gibbous, 97% of the Moon is Illuminated
Jun 11
Waxing Gibbous
Jun 12
Full
Jun 19
Last Quarter
Jun 27
New
Jul 5
First Quarter

Hourly Weather History & Observations

Time (PDT) Temp. Dew Point Humidity Pressure Visibility Wind Dir Wind Speed Gust Speed Precip Events Conditions
12:53 AM 60.1 °F 46.9 °F 62% 30.10 in 10.0 mi NNE 5.8 mph - N/A   Mostly Cloudy
1:53 AM 55.9 °F 48.9 °F 77% 30.09 in 10.0 mi WNW 3.5 mph - N/A   Scattered Clouds
2:53 AM 53.1 °F 48.0 °F 83% 30.09 in 10.0 mi NNW 5.8 mph - N/A   Clear
3:53 AM 55.0 °F 48.9 °F 80% 30.08 in 10.0 mi North 5.8 mph - N/A   Clear
4:53 AM 54.0 °F 50.0 °F 86% 30.06 in 10.0 mi NE 5.8 mph - N/A   Clear
5:53 AM 52.0 °F 48.9 °F 89% 30.07 in 10.0 mi Calm Calm - N/A   Scattered Clouds
6:53 AM 55.0 °F 50.0 °F 83% 30.07 in 10.0 mi Calm Calm - N/A   Mostly Cloudy
7:53 AM 57.9 °F 50.0 °F 75% 30.07 in 10.0 mi Calm Calm - N/A   Scattered Clouds
8:53 AM 61.0 °F 50.0 °F 67% 30.07 in 10.0 mi Calm Calm - N/A   Scattered Clouds
9:53 AM 59.0 °F 50.0 °F 72% 30.06 in 10.0 mi WSW 5.8 mph - N/A   Mostly Cloudy
10:53 AM 64.9 °F 51.1 °F 61% 30.04 in 10.0 mi West 6.9 mph - N/A   Mostly Cloudy
11:53 AM 66.9 °F 48.9 °F 52% 30.01 in 10.0 mi Variable 6.9 mph - N/A   Mostly Cloudy
12:53 PM 69.1 °F 48.0 °F 47% 29.99 in 10.0 mi WNW 9.2 mph - N/A   Mostly Cloudy
1:53 PM 71.6 °F 46.4 °F 41% 29.96 in 10.0 mi West 11.5 mph - N/A   Mostly Cloudy
2:53 PM 73.0 °F 44.1 °F 35% 29.96 in 10.0 mi NNW 10.4 mph - N/A   Mostly Cloudy
3:53 PM 73.9 °F 39.9 °F 29% 29.94 in 10.0 mi NNW 4.6 mph - N/A   Mostly Cloudy
4:53 PM 73.9 °F 44.1 °F 34% 29.92 in 10.0 mi Variable 4.6 mph - N/A   Mostly Cloudy
5:53 PM 73.9 °F 43.0 °F 33% 29.91 in 10.0 mi NNW 4.6 mph - N/A   Mostly Cloudy
6:53 PM 71.1 °F 43.0 °F 36% 29.90 in 10.0 mi NNW 9.2 mph - N/A   Mostly Cloudy
7:53 PM 68.0 °F 45.0 °F 43% 29.89 in 10.0 mi North 9.2 mph - N/A   Overcast
8:53 PM 64.9 °F 45.0 °F 48% 29.88 in 10.0 mi NNW 6.9 mph - N/A   Overcast
9:53 PM 63.0 °F 45.0 °F 52% 29.88 in 10.0 mi NNW 6.9 mph - N/A   Overcast
10:53 PM 63.0 °F 46.9 °F 56% 29.86 in 10.0 mi North 8.1 mph - N/A   Mostly Cloudy
11:53 PM 63.0 °F 48.0 °F 58% 29.85 in 10.0 mi NNE 10.4 mph - N/A   Mostly Cloudy